QPF
0.09 0.07 0.07 0.06 0.05 0.04 0.04 0.03 0.03 0.02 0.01 0.00 0.00 0.00 0.00 0.00 0.00 0.00 0.00 0.00 0.00 0.00 0.00 0.00 0.00 0.00 0.00 0.00 0.00 0.00 0.00 0.01 0.01 0.01 0.01 0.01 0.01 0.01
0.11 0.09 0.08 0.07 0.06 0.06 0.05 0.04 0.04 0.03 0.02 0.01 0.00 0.00 0.00 0.00 0.00 0.00 0.00 0.00 0.00 0.00 0.00 0.00 0.00 0.00 0.00 0.00 0.00 0.00 0.00 0.00 0.00 0.00 0.01 0.01 0.01 0.01
0.13 0.11 0.08 0.07 0.06 0.05 0.05 0.05 0.05 0.04 0.04 0.02 0.01 0.00 0.00 0.00 0.00 0.00 0.00 0.00 0.00 0.00 0.00 0.00 0.00 0.00 0.00 0.00 0.00 0.00 0.00 0.00 0.00 0.00 0.00 0.00 0.01 0.01
0.13 0.12 0.10 0.09 0.08 0.07 0.06 0.06 0.05 0.04 0.04 0.03 0.02 0.01 0.00 0.00 0.00 0.01 0.01 0.01 0.01 0.01 0.01 0.01 0.01 0.01 0.01 0.00 0.00 0.00 0.00 0.00 0.00 0.00 0.00 0.00 0.01 0.01
0.11 0.11 0.10 0.09 0.09 0.08 0.07 0.07 0.06 0.05 0.05 0.05 0.03 0.02 0.01 0.01 0.01 0.01 0.01 0.01 0.01 0.01 0.01 0.01 0.01 0.01 0.01 0.01 0.01 0.00 0.00 0.01 0.01 0.01 0.01 0.01 0.00 0.00
0.10 0.10 0.09 0.08 0.08 0.07 0.07 0.08 0.08 0.08 0.09 0.09 0.06 0.04 0.03 0.02 0.02 0.02 0.02 0.02 0.02 0.02 0.02 0.02 0.01 0.01 0.01 0.01 0.01 0.01 0.01 0.01 0.01 0.01 0.01 0.01 0.01 0.01
0.09 0.09 0.09 0.08 0.08 0.08 0.07 0.07 0.07 0.08 0.09 0.09 0.07 0.05 0.04 0.04 0.03 0.02 0.03 0.03 0.03 0.02 0.02 0.02 0.02 0.02 0.02 0.02 0.02 0.02 0.02 0.01 0.01 0.01 0.01 0.01 0.01 0.01
0.09 0.09 0.09 0.08 0.08 0.09 0.08 0.07 0.07 0.07 0.07 0.06 0.05 0.04 0.03 0.02 0.02 0.02 0.03 0.03 0.03 0.03 0.03 0.03 0.03 0.03 0.03 0.03 0.03 0.03 0.02 0.02 0.01 0.01 0.01 0.01 0.00 0.00
0.07 0.08 0.09 0.08 0.08 0.08 0.09 0.09 0.08 0.08 0.07 0.06 0.05 0.03 0.02 0.02 0.02 0.03 0.03 0.03 0.03 0.03 0.03 0.04 0.04 0.04 0.03 0.03 0.03 0.03 0.02 0.02 0.02 0.01 0.01 0.01 0.01 0.01
0.08 0.09 0.09 0.08 0.08 0.07 0.08 0.09 0.09 0.08 0.07 0.07 0.06 0.03 0.02 0.02 0.03 0.03 0.03 0.04 0.03 0.03 0.03 0.04 0.04 0.04 0.04 0.04 0.04 0.03 0.03 0.03 0.02 0.02 0.02 0.02 0.02 0.02
0.10 0.09 0.10 0.09 0.08 0.08 0.08 0.08 0.08 0.08 0.08 0.07 0.07 0.05 0.04 0.04 0.05 0.05 0.05 0.05 0.04 0.03 0.04 0.04 0.04 0.04 0.04 0.04 0.03 0.03 0.03 0.03 0.03 0.03 0.03 0.03 0.03 0.03
0.12 0.10 0.09 0.09 0.08 0.07 0.07 0.08 0.07 0.07 0.06 0.06 0.06 0.06 0.05 0.06 0.06 0.06 0.05 0.05 0.05 0.04 0.03 0.04 0.04 0.04 0.05 0.05 0.04 0.04 0.05 0.05 0.05 0.04 0.04 0.04 0.04 0.04
0.11 0.11 0.08 0.08 0.07 0.07 0.06 0.07 0.07 0.06 0.05 0.05 0.05 0.05 0.05 0.05 0.05 0.04 0.04 0.03 0.03 0.03 0.03 0.03 0.04 0.05 0.05 0.06 0.06 0.06 0.06 0.06 0.05 0.05 0.05 0.05 0.05 0.04
0.10 0.10 0.09 0.09 0.07 0.06 0.06 0.07 0.08 0.07 0.07 0.06 0.05 0.04 0.04 0.05 0.05 0.04 0.04 0.04 0.04 0.04 0.04 0.05 0.06 0.06 0.07 0.07 0.07 0.06 0.06 0.05 0.05 0.05 0.05 0.05 0.05 0.05
0.10 0.09 0.08 0.10 0.10 0.08 0.07 0.07 0.08 0.07 0.07 0.07 0.05 0.03 0.03 0.04 0.05 0.06 0.07 0.08 0.08 0.08 0.07 0.07 0.06 0.07 0.08 0.07 0.07 0.06 0.06 0.05 0.05 0.05 0.05 0.05 0.05 0.04
0.13 0.11 0.09 0.10 0.11 0.11 0.10 0.09 0.08 0.07 0.06 0.05 0.04 0.03 0.03 0.03 0.04 0.06 0.07 0.07 0.08 0.09 0.09 0.09 0.08 0.08 0.08 0.07 0.06 0.05 0.05 0.05 0.04 0.04 0.05 0.05 0.05 0.05
0.15 0.13 0.12 0.11 0.11 0.10 0.09 0.09 0.08 0.07 0.06 0.04 0.04 0.04 0.04 0.05 0.06 0.07 0.07 0.07 0.07 0.07 0.07 0.08 0.08 0.09 0.08 0.08 0.07 0.06 0.05 0.05 0.04 0.04 0.05 0.06 0.05 0.05
0.15 0.13 0.11 0.09 0.07 0.07 0.07 0.08 0.07 0.06 0.06 0.05 0.05 0.06 0.06 0.06 0.07 0.08 0.08 0.07 0.07 0.07 0.07 0.08 0.08 0.09 0.09 0.08 0.06 0.05 0.05 0.04 0.05 0.05 0.05 0.06 0.06 0.05
0.10 0.10 0.09 0.07 0.05 0.06 0.06 0.07 0.06 0.05 0.06 0.06 0.06 0.07 0.07 0.08 0.09 0.09 0.10 0.09 0.08 0.08 0.08 0.08 0.08 0.07 0.07 0.06 0.06 0.04 0.04 0.04 0.04 0.05 0.05 0.05 0.05 0.05
0.07 0.07 0.06 0.05 0.05 0.06 0.06 0.05 0.05 0.05 0.06 0.07 0.07 0.07 0.07 0.07 0.08 0.08 0.08 0.08 0.08 0.08 0.08 0.08 0.08 0.07 0.06 0.05 0.05 0.05 0.05 0.05 0.05 0.05 0.06 0.06 0.07 0.07
0.07 0.07 0.06 0.05 0.05 0.05 0.05 0.05 0.05 0.05 0.05 0.05 0.06 0.07 0.07 0.07 0.07 0.07 0.07 0.08 0.07 0.07 0.07 0.07 0.07 0.07 0.07 0.06 0.05 0.05 0.05 0.05 0.05 0.05 0.05 0.05 0.06 0.06
0.06 0.08 0.08 0.08 0.07 0.06 0.05 0.04 0.04 0.04 0.05 0.05 0.05 0.05 0.06 0.07 0.07 0.07 0.07 0.07 0.07 0.06 0.06 0.07 0.07 0.07 0.06 0.05 0.05 0.05 0.05 0.05 0.06 0.06 0.05 0.04 0.04 0.05
0.06 0.06 0.06 0.07 0.08 0.07 0.06 0.05 0.05 0.04 0.04 0.05 0.05 0.05 0.05 0.06 0.06 0.06 0.07 0.07 0.07 0.06 0.06 0.07 0.06 0.06 0.05 0.05 0.05 0.06 0.06 0.06 0.05 0.06 0.06 0.05 0.04 0.04
MSLP
1009.60 1009.74 1009.86 1009.93 1009.93 1009.83 1009.63 1009.34 1008.97 1008.54 1008.08 1007.63 1007.22 1006.88 1006.62 1006.45 1006.36 1006.34 1006.38 1006.46 1006.55 1006.65 1006.76 1006.88 1007.05 1007.27 1007.57 1007.96 1008.46 1009.04 1009.69 1010.38 1011.05 1011.67 1012.20 1012.62 1012.91 1013.07
1008.68 1008.76 1008.82 1008.85 1008.83 1008.74 1008.58 1008.33 1008.02 1007.65 1007.25 1006.85 1006.48 1006.16 1005.90 1005.71 1005.59 1005.53 1005.52 1005.54 1005.57 1005.63 1005.71 1005.83 1006.00 1006.25 1006.60 1007.06 1007.63 1008.30 1009.04 1009.81 1010.56 1011.25 1011.85 1012.32 1012.65 1012.85
1007.81 1007.79 1007.77 1007.74 1007.69 1007.59 1007.45 1007.24 1006.98 1006.68 1006.35 1006.02 1005.70 1005.41 1005.17 1004.98 1004.83 1004.74 1004.68 1004.64 1004.64 1004.66 1004.71 1004.83 1005.01 1005.29 1005.69 1006.21 1006.85 1007.59 1008.39 1009.23 1010.04 1010.79 1011.44 1011.95 1012.32 1012.56
1007.05 1006.93 1006.82 1006.72 1006.62 1006.50 1006.35 1006.17 1005.95 1005.71 1005.44 1005.16 1004.88 1004.63 1004.40 1004.20 1004.05 1003.92 1003.83 1003.76 1003.73 1003.73 1003.79 1003.91 1004.13 1004.45 1004.89 1005.46 1006.15 1006.95 1007.80 1008.68 1009.53 1010.32 1011.00 1011.55 1011.95 1012.22
1006.47 1006.25 1006.06 1005.89 1005.72 1005.56 1005.39 1005.20 1005.00 1004.77 1004.53 1004.28 1004.03 1003.79 1003.57 1003.37 1003.20 1003.06 1002.95 1002.88 1002.84 1002.86 1002.94 1003.10 1003.36 1003.73 1004.23 1004.85 1005.58 1006.41 1007.29 1008.18 1009.05 1009.86 1010.55 1011.12 1011.56 1011.87
1006.09 1005.80 1005.54 1005.29 1005.05 1004.83 1004.61 1004.39 1004.16 1003.92 1003.66 1003.40 1003.14 1002.89 1002.65 1002.44 1002.26 1002.12 1002.02 1001.96 1001.96 1002.02 1002.16 1002.38 1002.71 1003.15 1003.70 1004.37 1005.13 1005.98 1006.87 1007.76 1008.63 1009.43 1010.13 1010.71 1011.17 1011.51
1005.89 1005.55 1005.23 1004.92 1004.62 1004.33 1004.04 1003.75 1003.46 1003.16 1002.85 1002.54 1002.23 1001.94 1001.67 1001.44 1001.25 1001.11 1001.03 1001.02 1001.08 1001.21 1001.43 1001.75 1002.16 1002.68 1003.30 1004.01 1004.81 1005.66 1006.54 1007.43 1008.28 1009.06 1009.76 1010.34 1010.81 1011.18
1005.79 1005.43 1005.07 1004.72 1004.36 1004.00 1003.63 1003.26 1002.88 1002.49 1002.10 1001.71 1001.33 1000.97 1000.66 1000.40 1000.20 1000.07 1000.02 1000.07 1000.20 1000.43 1000.76 1001.18 1001.70 1002.30 1002.99 1003.75 1004.57 1005.43 1006.30 1007.17 1007.99 1008.76 1009.44 1010.02 1010.50 1010.88
1005.69 1005.34 1004.97 1004.59 1004.19 1003.77 1003.33 1002.87 1002.40 1001.91 1001.42 1000.93 1000.47 1000.04 999.67 999.38 999.16 999.05 999.05 999.15 999.37 999.70 1000.14 1000.67 1001.29 1001.98 1002.74 1003.55 1004.40 1005.26 1006.13 1006.97 1007.77 1008.51 1009.18 1009.76 1010.24 1010.64
1005.50 1005.18 1004.83 1004.44 1004.02 1003.56 1003.07 1002.54 1001.98 1001.40 1000.82 1000.25 999.70 999.21 998.79 998.46 998.23 998.13 998.16 998.33 998.63 999.05 999.58 1000.22 1000.93 1001.70 1002.52 1003.38 1004.25 1005.12 1005.98 1006.81 1007.60 1008.32 1008.98 1009.55 1010.04 1010.44
1005.16 1004.88 1004.57 1004.20 1003.78 1003.31 1002.79 1002.22 1001.61 1000.97 1000.33 999.69 999.09 998.54 998.08 997.72 997.48 997.39 997.44 997.65 998.01 998.50 999.11 999.81 1000.60 1001.43 1002.31 1003.20 1004.10 1004.98 1005.84 1006.66 1007.44 1008.16 1008.81 1009.38 1009.87 1010.27
1004.66 1004.43 1004.16 1003.83 1003.44 1002.98 1002.47 1001.89 1001.27 1000.62 999.95 999.28 998.65 998.07 997.58 997.21 996.96 996.87 996.93 997.16 997.54 998.07 998.72 999.47 1000.30 1001.17 1002.08 1003.00 1003.91 1004.81 1005.68 1006.50 1007.28 1008.00 1008.65 1009.22 1009.72 1010.13
1004.02 1003.85 1003.62 1003.34 1002.99 1002.58 1002.10 1001.55 1000.96 1000.32 999.67 999.02 998.39 997.81 997.32 996.94 996.68 996.58 996.64 996.86 997.25 997.78 998.43 999.19 1000.03 1000.92 1001.84 1002.77 1003.69 1004.60 1005.47 1006.31 1007.09 1007.82 1008.48 1009.06 1009.57 1009.98
1003.31 1003.18 1003.00 1002.77 1002.47 1002.11 1001.69 1001.20 1000.67 1000.09 999.48 998.87 998.28 997.73 997.26 996.88 996.62 996.50 996.54 996.74 997.10 997.60 998.23 998.97 999.79 1000.67 1001.58 1002.51 1003.44 1004.35 1005.23 1006.08 1006.88 1007.62 1008.29 1008.89 1009.40 1009.83
1002.60 1002.50 1002.35 1002.16 1001.91 1001.61 1001.25 1000.84 1000.38 999.88 999.35 998.80 998.27 997.77 997.32 996.96 996.70 996.58 996.59 996.75 997.07 997.53 998.12 998.82 999.60 1000.45 1001.34 1002.26 1003.17 1004.08 1004.97 1005.82 1006.63 1007.38 1008.07 1008.69 1009.22 1009.66
1001.94 1001.84 1001.71 1001.54 1001.34 1001.08 1000.79 1000.45 1000.07 999.65 999.21 998.74 998.28 997.84 997.44 997.10 996.86 996.72 996.72 996.85 997.13 997.54 998.08 998.73 999.48 1000.28 1001.14 1002.03 1002.93 1003.83 1004.71 1005.57 1006.38 1007.14 1007.84 1008.47 1009.02 1009.49
1001.35 1001.24 1001.11 1000.95 1000.76 1000.55 1000.30 1000.02 999.71 999.37 999.00 998.62 998.23 997.85 997.51 997.21 996.99 996.87 996.86 996.98 997.23 997.61 998.11 998.72 999.42 1000.19 1001.02 1001.88 1002.75 1003.63 1004.50 1005.34 1006.15 1006.92 1007.62 1008.26 1008.82 1009.31
1000.83 1000.70 1000.55 1000.38 1000.19 999.99 999.77 999.54 999.28 999.00 998.70 998.39 998.07 997.76 997.47 997.22 997.05 996.95 996.96 997.09 997.34 997.71 998.20 998.78 999.46 1000.20 1001.00 1001.83 1002.68 1003.53 1004.37 1005.20 1005.99 1006.74 1007.44 1008.09 1008.66 1009.16
1000.36 1000.19 1000.01 999.82 999.63 999.43 999.22 999.01 998.78 998.55 998.30 998.04 997.78 997.52 997.29 997.10 996.98 996.94 996.99 997.15 997.43 997.82 998.32 998.91 999.58 1000.31 1001.09 1001.90 1002.72 1003.54 1004.35 1005.15 1005.92 1006.65 1007.34 1007.97 1008.55 1009.06
999.90 999.70 999.49 999.28 999.07 998.86 998.65 998.44 998.23 998.02 997.80 997.58 997.36 997.15 996.98 996.85 996.79 996.81 996.93 997.15 997.48 997.92 998.46 999.08 999.77 1000.51 1001.28 1002.07 1002.86 1003.65 1004.44 1005.20 1005.93 1006.64 1007.31 1007.93 1008.50 1009.03
999.44 999.22 998.99 998.76 998.53 998.31 998.09 997.87 997.66 997.45 997.25 997.04 996.85 996.68 996.56 996.48 996.49 996.58 996.77 997.07 997.48 997.99 998.59 999.26 999.98 1000.74 1001.52 1002.30 1003.08 1003.85 1004.60 1005.32 1006.03 1006.70 1007.35 1007.96 1008.52 1009.05
998.98 998.75 998.51 998.26 998.02 997.79 997.56 997.33 997.11 996.89 996.68 996.48 996.30 996.15 996.06 996.03 996.09 996.25 996.52 996.90 997.40 997.98 998.65 999.38 1000.16 1000.95 1001.75 1002.54 1003.31 1004.06 1004.78 1005.49 1006.16 1006.81 1007.44 1008.03 1008.59 1009.11
998.52 998.29 998.04 997.80 997.55 997.31 997.07 996.83 996.59 996.36 996.13 995.91 995.73 995.59 995.51 995.52 995.63 995.85 996.19 996.64 997.22 997.88 998.63 999.42 1000.25 1001.08 1001.91 1002.71 1003.49 1004.23 1004.94 1005.63 1006.29 1006.92 1007.53 1008.12 1008.67 1009.19
Thickness
5599 5599 5601 5602 5604 5605 5605 5605 5603 5604 5609 5610 5607 5606 5603 5601 5599 5596 5595 5592 5589 5585 5581 5577 5573 5568 5564 5559 5554 5549 5544 5539 5533 5528 5523 5518 5513 5508
5590 5591 5593 5595 5596 5597 5597 5597 5597 5597 5601 5606 5603 5601 5597 5595 5593 5591 5590 5587 5584 5580 5576 5572 5568 5563 5558 5553 5548 5543 5538 5533 5527 5522 5517 5511 5506 5502
5581 5584 5586 5587 5588 5589 5589 5590 5590 5590 5591 5594 5592 5591 5589 5588 5586 5584 5583 5580 5579 5575 5571 5567 5562 5558 5553 5548 5542 5537 5532 5527 5521 5516 5511 5505 5500 5495
5575 5576 5578 5580 5580 5581 5581 5582 5582 5583 5583 5584 5583 5581 5582 5581 5580 5578 5576 5574 5572 5570 5566 5561 5557 5553 5547 5542 5537 5531 5526 5521 5516 5510 5505 5500 5494 5489
5567 5569 5571 5572 5573 5574 5574 5574 5575 5576 5576 5576 5576 5574 5573 5571 5570 5569 5568 5566 5564 5562 5558 5555 5551 5547 5541 5536 5531 5526 5521 5516 5510 5505 5499 5494 5489 5483
5559 5561 5564 5566 5568 5568 5568 5569 5568 5568 5568 5568 5568 5568 5566 5563 5561 5561 5561 5559 5557 5554 5551 5548 5545 5540 5535 5530 5526 5521 5515 5510 5505 5499 5494 5488 5483 5477
5552 5555 5557 5559 5561 5561 5561 5563 5562 5562 5561 5561 5562 5561 5560 5556 5556 5556 5555 5553 5550 5547 5545 5542 5539 5535 5530 5525 5520 5515 5510 5505 5499 5494 5489 5483 5477 5471
5545 5548 5550 5551 5552 5553 5554 5555 5556 5556 5557 5557 5557 5558 5559 5556 5553 5550 5548 5545 5545 5542 5538 5537 5533 5530 5525 5521 5516 5511 5505 5500 5494 5488 5483 5477 5471 5465
5538 5542 5544 5546 5545 5547 5547 5546 5547 5549 5552 5553 5553 5556 5555 5553 5549 5545 5543 5542 5542 5537 5530 5530 5526 5523 5520 5515 5510 5505 5500 5494 5489 5483 5477 5471 5465 5460
5532 5536 5538 5540 5540 5540 5540 5540 5541 5542 5544 5546 5549 5551 5550 5547 5544 5541 5538 5533 5529 5526 5524 5523 5520 5516 5512 5508 5504 5499 5494 5489 5483 5477 5471 5465 5459 5454
5526 5529 5531 5534 5535 5533 5533 5534 5533 5535 5535 5537 5538 5540 5540 5538 5535 5531 5528 5524 5522 5519 5516 5514 5512 5507 5504 5501 5497 5492 5488 5482 5476 5471 5465 5459 5453 5447
5519 5522 5524 5527 5528 5526 5527 5528 5528 5529 5528 5527 5528 5530 5530 5529 5528 5527 5525 5522 5518 5514 5510 5506 5503 5498 5494 5493 5489 5485 5481 5475 5470 5464 5458 5452 5445 5440
5512 5516 5519 5519 5520 5520 5521 5524 5524 5522 5520 5520 5521 5522 5521 5521 5520 5519 5519 5518 5515 5511 5506 5500 5495 5491 5488 5483 5480 5477 5473 5469 5463 5457 5450 5444 5439 5434
5505 5509 5513 5512 5513 5513 5514 5515 5513 5512 5512 5512 5514 5514 5514 5513 5512 5511 5509 5508 5507 5504 5500 5495 5490 5486 5479 5474 5471 5468 5464 5460 5455 5449 5443 5437 5432 5427
5496 5501 5503 5503 5503 5504 5505 5505 5504 5505 5506 5506 5508 5508 5507 5506 5503 5501 5498 5496 5493 5491 5488 5486 5483 5479 5475 5470 5465 5460 5455 5450 5446 5442 5436 5431 5427 5422
5486 5490 5492 5494 5495 5496 5497 5497 5498 5500 5501 5501 5501 5500 5498 5496 5494 5492 5490 5487 5483 5478 5476 5475 5473 5470 5466 5462 5457 5452 5447 5443 5439 5434 5429 5425 5421 5416
5475 5480 5483 5485 5487 5488 5490 5491 5492 5492 5493 5493 5493 5492 5490 5488 5486 5485 5483 5480 5477 5473 5467 5463 5461 5458 5455 5451 5447 5444 5439 5435 5432 5427 5422 5418 5415 5410
5466 5472 5476 5479 5481 5483 5484 5485 5485 5486 5487 5488 5488 5487 5485 5483 5480 5477 5476 5475 5473 5468 5463 5458 5453 5449 5444 5439 5436 5434 5431 5428 5423 5419 5414 5411 5408 5403
5459 5465 5470 5473 5475 5477 5478 5478 5480 5481 5482 5482 5482 5481 5479 5477 5474 5472 5470 5468 5465 5461 5457 5452 5449 5447 5444 5437 5428 5425 5423 5420 5415 5411 5407 5404 5401 5396
5453 5458 5462 5466 5468 5470 5472 5472 5473 5474 5475 5475 5475 5475 5473 5471 5469 5467 5464 5462 5459 5454 5449 5445 5443 5442 5440 5434 5424 5417 5414 5411 5409 5404 5400 5395 5391 5387
5445 5450 5454 5458 5462 5464 5466 5467 5468 5469 5470 5470 5469 5468 5468 5466 5464 5462 5459 5455 5452 5449 5446 5441 5436 5432 5427 5423 5417 5411 5406 5403 5400 5397 5392 5388 5384 5380
5438 5442 5447 5451 5455 5458 5460 5461 5462 5464 5464 5464 5464 5463 5462 5461 5459 5456 5454 5450 5447 5444 5439 5432 5426 5424 5422 5420 5414 5406 5400 5395 5391 5387 5384 5381 5378 5374
5430 5434 5438 5443 5448 5452 5454 5455 5457 5459 5459 5459 5458 5458 5457 5455 5453 5451 5448 5444 5440 5436 5431 5425 5420 5417 5414 5411 5406 5400 5393 5388 5384 5380 5377 5373 5370 5367